Location: ??????????
(31.2156°N, 29.9553°E)
Time: 04:52:37
(UTC+00:00)

DELTA 2 R/B (1) - Pass Details

Date: 03 March 2021
Orbit: 790 x 803 km, 39.6° (Epoch: 14 April)

Event Time Altitude Azimuth Distance (km) Brightness Sun altitude
Rises 16:58:05 0° 234° (SW) 3,272 7.7 -13.2°
Reaches altitude 10° 17:00:34 10° 231° (SW) 2,343 6.8 -13.8°
Maximum altitude 17:06:03 68° 150° (SSE) 843 3.6 -14.9°
Enters shadow 17:09:35 23° 71° (ENE) 1,640 4.7 -15.7°
